Location: Braconnerie
(43.4636°N, 5.5418°E)
Time: 16:02:11
(UTC+00:00)

Daily predictions for brighter satellites

Satellite Brightness Start Highest point End
(mag) Time Altitude Azimuth Time Altitude Azimuth Time Altitude Azimuth
YAOGAN 1 3.7 17:12:08 10° ESE 17:15:31 23° ENE 17:18:55 10° NNE
Cosmos 2251 Rocket 3.6 17:12:02 10° NNW 17:17:17 56° ENE 17:22:30 10° SE
Cosmos 1727 Rocket 4.4 17:12:31 10° N 17:18:18 39° ENE 17:24:01 10° SE
SL-8 Rocket 4.0 17:12:18 10° S 17:18:33 70° E 17:24:46 10° NNE
USA 102 4.3 17:15:40 10° SSE 17:20:32 76° ENE 17:24:44 10° NNW
Cosmos 1328 3.9 17:19:01 10° S 17:22:57 58° E 17:26:55 10° NNE
Envisat 3.0 17:17:56 10° SSE 17:23:00 79° ENE 17:28:06 10° N
USA 267 3.5 17:20:27 10° NE 17:26:57 71° NW 17:33:26 10° WSW
FengYun 1-2 T 4.3 17:21:44 10° SSE 17:27:16 60° ENE 17:32:51 10° N
USA 32 4.4 17:22:14 10° S 17:27:26 72° W 17:32:40 10° N
ISS -2.1 17:27:55 10° WNW 17:30:49 25° NNW 17:33:40 10° NE
Cosmos 44 4.2 17:26:46 10° WSW 17:31:06 42° NW 17:35:20 10° NNE
CZ-4 R/B 1.8 17:28:36 10° SE 17:32:27 41° ENE 17:36:23 10° N
NOSS 3-2 (A) 4.4 17:37:12 10° SSE 17:41:37 24° ESE 17:45:13 14° ENE
ATLAS CENTAUR R/B 1.1 17:38:11 10° NW 17:42:11 89° NE 17:45:53 10° SSE
CSL-04 Rocket 4.0 17:38:08 10° SE 17:43:22 46° ENE 17:48:39 10° N
Cosmos 407 Rocket 4.4 17:39:56 10° N 17:44:25 27° ENE 17:48:50 10° ESE
Cosmos 1703 3.4 17:40:43 10° S 17:44:40 79° W 17:48:40 10° N
Cosmos 1953 Rocket 4.1 17:41:13 10° SSW 17:45:40 63° W 17:50:08 10° N
Cosmos 1455 3.0 17:43:52 10° NNW 17:47:35 54° W 17:51:14 10° S
Starlink AR 4.2 17:47:57 10° NNW 17:49:59 19° NNE 17:50:26 18° NNE
COSMO-SKYMED 1 2.5 17:46:51 10° NNE 17:51:14 85° ESE 17:55:34 10° SSW
Cosmos 1842 Rocket 3.7 17:47:02 10° N 17:51:26 51° ENE 17:55:47 10° SSE
Cosmos 1821 Rocket 4.4 17:47:14 10° SSE 17:53:05 41° E 17:58:54 10° NNE
Starlink J 4.5 17:52:09 10° NW 17:54:49 22° NNE 17:55:42 20° NE
Starlink V 4.4 17:54:27 10° NW 17:57:10 23° NNE 17:57:56 21° NE
Shenzhou-11 Module 2.0 17:56:10 10° W 17:58:50 60° S 17:59:59 29° ESE
Meteor 2-12 Rocket 4.4 17:53:31 10° S 17:59:28 65° E 18:05:28 10° NNE
Starlink H 4.4 17:56:48 10° NW 17:59:31 23° NNE 18:00:12 22° NE
Meteor 2-10 Rocket 4.4 17:55:10 10° NNW 18:00:13 52° W 18:05:05 10° S
USA 234 3.3 17:54:18 10° SE 18:00:52 89° SW 18:07:26 10° NW
Starlink F 4.4 17:59:07 10° NW 18:01:53 24° NNE 18:02:27 23° NE
Starlink G 4.3 18:01:27 10° NW 18:04:14 25° NNE 18:04:42 24° NE
Cosmos 1356 Rocket 3.5 18:00:27 10° NNW 18:04:32 79° W 18:08:40 10° S
Ariane Rocket 3.6 18:02:06 10° SE 18:06:34 32° ENE 18:11:03 10° N
Starlink L 4.3 18:03:46 10° NW 18:06:35 25° NNE 18:06:57 25° NNE
USA 116 3.0 18:05:45 17° NNE 18:07:58 65° ESE 18:11:05 10° S
ADEOS Rocket 3.7 18:01:57 10° NNE 18:08:36 45° E 18:15:45 10° S
Starlink A 4.3 18:06:06 10° NW 18:08:57 26° NNE 18:09:13 25° NNE
CZ-2D R/B 3.2 18:06:27 10° SSE 18:10:14 62° ENE 18:14:04 10° N
Starlink R 4.2 18:08:28 10° NW 18:11:20 26° NNE 18:11:29 26° NNE
Cosmos 2098 4.3 18:08:54 10° S 18:12:01 69° E 18:15:54 10° NNE
Starlink K 4.2 18:10:48 10° NW 18:13:41 27° NNE 18:13:44 27° NNE
Starlink M 4.2 18:13:07 10° NW 18:15:59 28° NNE 18:15:59 28° NNE
Cosmos 1869 3.6 18:13:12 10° N 18:16:59 40° ENE 18:18:29 28° SE
SL-16 R/B 3.8 18:12:12 10° NW 18:17:24 38° WSW 18:22:33 10° S
Cosmos 614 Rocket 4.0 18:12:22 10° NNW 18:17:30 55° ENE 18:22:36 10° SE
Cosmos 2221 2.3 18:13:27 10° N 18:17:45 74° E 18:22:03 10° SSE
SL-8 R/B 4.3 18:13:55 10° WNW 18:18:34 46° N 18:20:30 30° NE
Cosmos 1437 4.4 18:16:58 10° SSE 18:18:06 20° SSE 18:18:06 20° SSE
Cosmos 2123 Rocket 4.3 18:15:39 10° N 18:21:33 40° ENE 18:27:23 10° SE
Cosmos 1076 Rocket 3.6 18:17:47 10° SSE 18:21:57 49° E 18:24:11 25° NNE
Cosmos 44 Rocket 3.3 18:17:11 10° SW 18:22:00 75° NW 18:25:12 21° NNE
USA 238 DEB 3.7 18:15:52 10° SSW 18:22:19 56° ESE 18:26:24 24° NE
Cosmos 2227 4.1 18:16:38 10° SSW 18:22:21 76° ESE 18:27:08 15° NNE
USA 238 3.7 18:16:00 10° SSW 18:22:26 56° ESE 18:26:28 24° NE
Cosmos 1934 Rocket 4.2 18:17:07 10° SSE 18:22:44 42° E 18:28:21 10° NNE
Cosmos 1939 Rocket 2.7 18:19:28 10° SSE 18:23:24 90° ENE 18:27:26 10° NNW
ARGOS 4.3 18:27:20 24° NE 18:27:20 24° NE 18:30:23 10° N
BREEZE-M DEB (TANK) 3.4 18:24:10 10° W 18:26:17 33° N 18:26:22 33° N
Cosmos 1000 Rocket 4.4 18:20:10 10° N 18:26:23 72° E 18:32:38 10° SSE
Cosmos 2056 Rocket 3.7 18:22:24 10° S 18:27:27 50° ESE 18:29:44 30° NE
Cosmos 2239 Rocket 4.4 18:24:04 10° S 18:30:20 70° E 18:36:38 10° NNE
CZ-2C R/B 4.4 18:32:12 24° NE 18:32:12 24° NE 18:35:25 10° N
Cosmos 1603 3.6 18:25:13 10° NNW 18:30:55 81° ENE 18:36:32 10° SSE
Cosmos 2263 Rocket 2.0 18:26:55 10° SSW 18:32:26 70° ESE 18:35:48 25° NNE
Cosmos 2058 2.7 18:39:41 10° S 18:43:48 74° E 18:43:58 73° ENE
Cosmos 1140 Rocket 3.4 18:41:21 10° NNW 18:46:35 63° ENE 18:47:38 51° ESE
Cosmos 1535 Rocket 4.4 18:40:45 10° S 18:46:59 66° E 18:53:20 10° NNE
OAO 3 Rocket 4.4 18:44:23 10° SW 18:48:17 27° S 18:48:40 26° SSE
ATLAS 5 CENTAUR R/B 4.0 18:43:16 10° NNW 18:48:33 60° NE 19:11:09 10° SE
YAOGAN 1 4.2 18:47:29 10° SSW 18:51:26 34° W 18:55:24 10° NNW
Atlas Centaur 2 4.0 18:49:25 10° SW 18:51:48 14° S 18:53:17 13° SSE
NOSS 3-3 (A) 4.4 18:48:10 10° NNW 18:55:41 70° NE 18:59:19 36° SE
NOSS 3-3 (C) 4.4 18:48:16 10° NNW 18:55:46 70° NE 18:59:20 37° SE
Cosmos 1943 3.2 18:53:40 10° NNW 18:59:20 79° WSW 19:03:00 23° SSE
H-2A R/B 2.9 19:04:42 34° N 19:04:42 34° N 19:07:44 10° N
ATLAS 3B R/B 3.6 19:00:46 10° S 19:04:32 29° SSE 19:04:32 29° SSE
CZ-4 R/B 4.3 19:04:54 10° SW 19:07:40 17° W 19:10:27 10° NW
ISS -1.0 19:05:46 10° NW 19:06:38 14° NW 19:06:38 14° NW
USA 267 4.4 19:06:36 24° NNE 19:09:20 33° NNW 19:15:01 10° WNW
Cosmos 1954 Rocket 4.4 19:08:57 10° NNW 19:13:02 52° N 19:13:02 52° N
NOSS 3-2 (C) 3.3 19:09:22 10° SSW 19:14:41 70° SSE 19:14:41 70° SSE
CENTAUR R/B 2.8 19:16:24 10° SSW 19:20:43 49° S 19:20:43 49° S
NOSS 3-2 (A) 3.7 19:26:06 10° SW 19:31:48 61° NW 19:32:40 55° NNW
Cosmos 1605 Rocket 4.3 19:43:15 10° SSW 19:56:06 - N 19:49:15 64° W
Cosmos 2263 Rocket 4.3 20:12:49 10° W 20:16:55 21° NW 20:17:33 20° NW
